STARLINK-11270, 60999

Orbit data source: Space-Track

STARLINK-11270, 60999 is a payload satellite owned by SpaceX/Seattle (US) in LEO that was launched on Thu, 05 Sep 2024 UTC via an FALCON 9 launch vehicle from the Air Force Eastern Test Range (AFETR). Payload-class satellites include a variety of spacecraft equipped with specific instruments for various scientific and technological missions. These include communications satellites like Starlink; space stations such as the ISS; scientific satellites like the Hubble; Earth observation satellites from companies like Planet Labs, Umbra, and HawkEye 360; GPS; miniature CubeSats for education and research; and military/defense satellites.

Loading next visibility...
Identifier
60999, 2024-158K
Orbit
LEO
Country
Flag of USUS
Related business
Manufacturer
SpaceX/Seattle
Mission
Operational Commercial Communications
Bus & Motor
STARLINK V2MD, Unknown motor
Mass
960 kg wet, ~910 kg dry
Launch date (UTC)
2024-09-05 (1 year ago)
Launch vehicle
FALCON 9
Launch site
Air Force Eastern Test Range (AFETR)
Object type
Payload
Rocket body
Debris
Shape & HBR
Box + 2 Pan, 14.5 m
Radar Cross Section
36.964 m², Large (>1 m²)

Expand to show TLE details & history
Last TLE update: 13 hours ago

TLE from 13 hours ago
0 STARLINK-11270
1 60999U 24158K   25259.42668352 -.00001900  00000-0 -10835-4 0  9995
2 60999  53.1595  60.3927 0000849  92.9788 267.1327 15.69696665 60210
Epoch: 2025-09-16T10:14Z
TLE epoch observation values (Epoch: 2025-09-16T10:14:25.456Z)
Latitude
-0.00001°
Longitude
-88.83052°
Altitude
360.709 km
Speed
7.694 km/s
True Right ascension
04h 01m 34s
True Declination
0° 00' 00"
Sunlit
Object was in full shadow at epoch
Visualization orbit readout
Latitude
Unknown
Longitude
Unknown
Altitude
Unknown
Speed
Unknown
Apparent Right ascension
Unknown
Apparent Declination
Unknown
Sunlit
N/A
Visualization observer readout
Local Sidereal Time
16:25:53
Azimuth
Unknown
Elevation
Unknown
Doppler factor
Unknown
Orbital elements
Apogee altitude
360.598 km
Perigee altitude
359.454 km
Semi-major axis
6,738.163 km
Eccentricity
0.00008
Inclination
53.1595°
RAAN
60.3927°
Arg. of periapsis
92.9788°
True anomaly
267.12298°
Mean anomaly
267.1327°
Eccentric anomaly
267.12784°
Mean motion
3.92402 °/min
Orbital period
91.74 mins
BSTAR
-0.000010835
Loading maneuver chart data...
Computing Atmospheric mass density...
Loading historical data...
Loading historical data...
Loading historical data...
Loading historical data...
Loading historical data...
Loading historical data...
Loading historical data...

Documentation

Showing up to 5 results
|